Time,B instrument,Bx,By,Bz,sigma B,Ion instrument,Status,Tp_par,Tp_perp,carrot,r_sun,clat,clong,earth_he_angle,n_p,vp_x,vp_y,vp_z,vth_p_par,vth_p_perp
1980-05-01 00:08:10,-1,nan,nan,nan,nan,1,3,nan,nan,1694,0.60284966,-6.663126,72.550293,282.36279,nan,303.057,12.3669,-10.4915,nan,nan
1980-05-01 00:08:14,-1,nan,nan,nan,nan,1,3,nan,nan,1694,0.60284966,-6.663126,72.550293,282.36279,nan,303.057,12.367,-10.4915,nan,nan
1980-05-01 00:29:46,-1,nan,nan,nan,nan,1,3,nan,nan,1694,0.60267645,-6.6644526,72.36792,282.37573,nan,297.349,11.0495,-14.7101,nan,nan
1980-05-01 00:51:22,-1,nan,nan,nan,nan,1,3,nan,nan,1694,0.60249507,-6.6658421,72.182373,282.3894,nan,293.289,4.65999,-19.2582,nan,nan
1980-05-01 01:12:58,-1,nan,nan,nan,nan,1,3,nan,nan,1694,0.6023218,-6.6671686,71.996094,282.40234,nan,294.574,0.851062,-15.951,nan,nan
1980-05-01 01:34:34,-1,nan,nan,nan,nan,1,3,nan,nan,1694,0.60214031,-6.6685572,71.810547,282.41602,nan,290.625,4.37589,-20.5433,nan,nan
1980-05-01 01:56:10,-1,nan,nan,nan,nan,1,3,nan,nan,1694,0.60195875,-6.6699457,71.628906,282.42969,nan,283.906,2.46596,-11.4766,nan,nan
1980-05-01 02:17:46,-1,nan,nan,nan,nan,1,3,nan,nan,1694,0.60178542,-6.6712685,71.442871,282.44287,nan,286.758,2.65052,-12.3964,nan,nan
1980-05-01 02:39:22,-1,nan,nan,nan,nan,1,3,nan,nan,1694,0.60160375,-6.6726532,71.257324,282.45654,nan,283.714,0.410356,-11.8528,nan,nan
1980-05-01 03:00:58,-1,nan,nan,nan,nan,1,3,nan,nan,1694,0.60143036,-6.673975,71.071289,282.46973,nan,284.293,3.08232,-10.7487,nan,nan
1980-05-01 03:01:02,-1,nan,nan,nan,nan,1,3,nan,nan,1694,0.60142213,-6.674037,71.071777,282.47021,nan,284.293,3.08235,-10.7487,nan,nan
1980-05-01 03:22:34,-1,nan,nan,nan,nan,1,3,nan,nan,1694,0.60124862,-6.6753578,70.889648,282.4834,nan,285.072,7.35857,-9.49986,nan,nan
1980-05-01 03:44:10,-1,nan,nan,nan,nan,1,3,nan,nan,1694,0.60106689,-6.6767416,70.704102,282.49707,nan,285.441,13.0146,-12.574,nan,nan
1980-05-01 04:05:46,-1,nan,nan,nan,nan,1,3,nan,nan,1694,0.60089338,-6.6780624,70.518066,282.51025,nan,283.748,19.5412,-8.17872,nan,nan
1980-05-01 04:27:22,-1,nan,nan,nan,nan,1,3,nan,nan,1694,0.60071152,-6.6794434,70.332764,282.52417,nan,284.853,13.3009,-9.02806,nan,nan
1980-05-01 05:11:17,-1,nan,nan,nan,nan,1,3,nan,nan,1694,0.60034776,-6.6822042,69.958252,282.552,nan,277.397,5.26224,-8.4936,nan,nan
1980-05-01 05:11:55,2,-2.6925,-1.19,8.2325,0.56039,1,1,54899.3,44369.6,1694,0.60034776,-6.6822042,69.954346,282.552,37.6856,279.223,1.92968,-8.64674,30.1052,27.0645
1980-05-01 05:12:05,2,-3.06333,-1.38,8.05333,0.25738,1,1,54900.5,44391.2,1694,0.60033947,-6.6822672,69.950928,282.55249,37.6956,279.228,1.94205,-8.64932,30.1055,27.0711
1980-05-01 05:12:36,2,-1.22333,-0.173333,8.52333,0.493356,1,1,53920.4,49090.5,1694,0.60033947,-6.6822672,69.947021,282.55249,37.8367,277.045,2.94359,-7.9514,29.8356,28.468
1980-05-01 05:13:16,2,-0.69,-1.485,8.065,0.663476,1,1,49431.7,51636.9,1694,0.60033125,-6.6823301,69.939941,282.55322,40.3896,283.817,6.94315,-8.35635,28.5667,29.197
1980-05-01 05:13:57,2,-1.4725,-0.96,8.17,0.421567,1,1,58805.4,48449.0,1694,0.60033119,-6.6823301,69.936035,282.55322,39.3488,281.089,2.28184,-7.06601,31.1578,28.2814
1980-05-01 05:14:37,2,-0.8625,-0.5925,8.2475,0.340303,1,1,46270.5,45612.2,1694,0.60032296,-6.6823931,69.928711,282.55371,37.6572,278.82,3.01,-5.47534,27.6382,27.4409
1980-05-01 05:15:18,2,-2.26,-0.61,8.27333,0.243082,1,1,60250.7,48773.4,1694,0.60031468,-6.6824551,69.925537,282.55444,40.4454,281.562,2.34904,-8.53427,31.5384,28.3759
1980-05-01 05:15:58,2,-2.695,-0.9825,7.6925,0.186581,1,1,47933.7,43509.2,1694,0.60031468,-6.6824551,69.917725,282.55444,37.2396,279.077,2.85545,-9.32539,28.1306,26.8008
1980-05-01 05:16:39,2,-2.05,-1.16,6.99333,0.268742,1,1,54251.7,46139.0,1694,0.60030639,-6.682518,69.910645,282.55518,38.6191,277.021,1.56117,-10.001,29.9271,27.5989
1980-05-01 05:17:19,2,-1.0425,-0.47,6.6325,0.39088,1,1,55623.6,47971.3,1694,0.60029811,-6.6825809,69.907227,282.55566,40.6369,277.976,1.37685,-9.70763,30.3031,28.1416
1980-05-01 05:18:00,2,-1.23,-0.77,5.69,0.248059,1,1,56122.4,49722.0,1694,0.60028988,-6.6826429,69.900146,282.5564,41.4252,280.528,3.34991,-8.90383,30.4387,28.6505
1980-05-01 05:18:40,2,-0.645,-0.12,6.5025,0.450382,1,1,54314.3,51917.7,1694,0.60028988,-6.6826429,69.89624,282.5564,41.6308,280.175,1.3317,-7.88518,29.9443,29.2763
1980-05-01 05:19:21,2,-0.72,-1.17,7.15667,0.404255,1,1,57246.8,54170.2,1694,0.6002816,-6.6827059,69.888916,282.55688,42.1275,281.559,4.13836,-10.272,30.7421,29.9046
1980-05-01 05:20:01,2,-1.3825,-0.1525,6.7875,0.845107,1,1,53105.7,52353.1,1694,0.60027331,-6.6827688,69.885742,282.55762,39.9276,282.478,1.22115,-11.5728,29.6093,29.3988
1980-05-01 05:20:42,2,-1.1025,-1.7625,7.15,0.362957,1,1,55483.3,53752.2,1694,0.60027331,-6.6827688,69.87793,282.55762,42.259,281.242,5.59905,-9.48005,30.2649,29.789
1980-05-01 05:21:22,1,0.0218391,-1.21149,7.71034,1.03933,1,1,54348.2,52904.8,1694,0.60026503,-6.6828318,69.870605,282.55811,41.3147,283.098,0.0116562,-10.9361,29.9537,29.5533
1980-05-01 05:22:03,1,0.854945,-0.412088,8.14286,0.862305,1,1,41304.2,45922.4,1694,0.6002568,-6.6828938,69.867432,282.55884,38.2918,282.051,1.11676,-11.0808,26.1129,27.5341
1980-05-01 05:22:43,1,2.11099,0.42967,8.08791,0.685771,1,1,44257.0,47613.1,1694,0.6002568,-6.6828938,69.859619,282.55884,39.3945,284.986,3.52363,-10.7874,27.0302,28.0363
1980-05-01 05:23:24,1,2.99231,1.2011,8.90549,0.902754,1,1,38787.6,50620.3,1694,0.60024852,-6.6829567,69.856445,282.55957,37.8831,289.301,6.15403,-13.8549,25.3049,28.9081
1980-05-01 05:24:04,1,2.68352,1.02198,8.77582,0.401483,1,1,37785.4,49697.1,1694,0.60024023,-6.6830196,69.849121,282.56006,39.0127,290.707,6.40962,-14.4573,24.9758,28.6433
1980-05-01 05:24:45,1,3.0011,0.897802,8.78352,0.471317,1,1,38201.5,46620.4,1694,0.60024023,-6.6830196,69.841309,282.56006,38.7535,288.143,5.54539,-13.5965,25.113,27.7425
1980-05-01 05:25:25,1,4.08681,0.89011,7.81099,0.575071,1,1,36133.9,48096.2,1694,0.60023195,-6.6830816,69.838135,282.56079,39.0201,288.849,4.70548,-15.6563,24.4239,28.1782
1980-05-01 05:26:06,1,4.7,0.616484,7.80659,0.666146,1,1,47176.2,44705.4,1694,0.60022372,-6.6831446,69.830811,282.56128,39.738,287.667,5.26988,-12.7367,27.9074,27.1668
1980-05-01 05:26:46,1,4.58462,1.04286,7.88242,0.536709,1,1,41408.1,47417.9,1694,0.60022372,-6.6831446,69.826904,282.56128,39.635,286.826,4.68943,-11.7136,26.1457,27.9788
1980-05-01 05:27:27,1,3.45385,1.66703,7.86484,0.609762,1,1,41662.1,45577.6,1694,0.60021544,-6.6832075,69.819824,282.56201,37.9461,286.057,5.28337,-11.5551,26.2258,27.4305
1980-05-01 05:28:07,1,3.7069,2.23333,7.20805,0.766493,1,1,49738.2,45778.1,1694,0.60020715,-6.6832705,69.8125,282.5625,39.7218,284.645,2.4933,-10.9874,28.6552,27.4908
1980-05-01 05:28:48,1,3.86703,2.45934,7.10659,0.545679,1,1,52522.4,44005.3,1694,0.60020715,-6.6832705,69.808594,282.5625,38.6469,284.584,2.51669,-11.6206,29.4463,26.9532
1980-05-01 05:29:28,1,4.18571,2.27912,6.6956,0.505356,1,1,50161.5,47449.8,1694,0.60019886,-6.6833324,69.801514,282.56323,38.1409,283.087,1.64185,-15.6803,28.7768,27.9882
1980-05-01 05:30:09,1,5.0989,2.49341,5.44945,0.814116,1,1,55227.0,46340.8,1694,0.60019064,-6.6833954,69.79834,282.56396,41.3732,285.743,2.09805,-13.0468,30.1949,27.6592
1980-05-01 05:30:49,1,5.22308,3.14505,5.01429,0.751981,1,1,56301.9,45430.4,1694,0.60019058,-6.6833954,69.790527,282.56396,42.0194,282.649,2.42698,-9.75678,30.4873,27.3862
1980-05-01 05:31:30,1,4.95714,1.62418,6.55824,0.492035,1,1,52071.4,47208.7,1694,0.60018235,-6.6834583,69.787109,282.56445,41.2683,281.576,1.68074,-10.5145,29.3196,27.917
1980-05-01 05:32:10,1,5.16923,1.89121,6.87582,0.437194,1,1,49043.6,45139.8,1694,0.60017407,-6.6835203,69.780029,282.56519,37.1264,280.476,2.40057,-16.8835,28.4544,27.2984
1980-05-01 05:32:51,1,5.01429,1.77033,7.06703,0.458886,1,1,45686.2,46759.5,1694,0.60017407,-6.6835203,69.772217,282.56519,37.0003,282.45,4.07049,-16.7373,27.4632,27.7839
1980-05-01 05:33:31,1,5.59121,1.92308,6.36264,0.56186,1,1,49988.1,43339.0,1694,0.60016578,-6.6835833,69.768799,282.56567,37.1137,283.226,3.53761,-15.3075,28.7271,26.7484
1980-05-01 05:34:12,1,5.67912,1.83736,6.68681,0.536446,1,1,46639.1,44449.6,1694,0.6001575,-6.6836462,69.761719,282.56641,36.7926,282.0,3.62518,-14.7964,27.7481,27.0889
1980-05-01 05:34:52,1,5.43333,1.80345,6.36552,0.400271,1,1,50142.3,44122.4,1694,0.6001575,-6.6836462,69.757813,282.56641,37.2572,281.738,3.92475,-15.9764,28.7713,26.989
1980-05-01 05:35:33,1,5.50659,1.67473,6.23846,0.434037,1,1,48254.6,47554.4,1694,0.60014927,-6.6837091,69.750488,282.56689,37.6382,281.368,4.35728,-16.1829,28.2246,28.019
1980-05-01 05:36:13,1,5.47692,1.49451,6.1956,0.444095,1,1,47738.3,48737.2,1694,0.60014099,-6.6837711,69.743408,282.56763,37.3844,281.063,2.49789,-16.5188,28.0732,28.3654
1980-05-01 05:36:54,1,5.34286,1.52088,6.53297,0.536106,1,1,48819.1,50518.8,1694,0.60014099,-6.6837711,69.739502,282.56763,37.5147,280.864,4.32366,-16.5236,28.3892,28.8792
1980-05-01 05:37:34,2,5.16,1.3275,6.8425,0.191409,1,1,46664.4,50015.4,1694,0.6001327,-6.6838341,69.732178,282.56812,37.8655,281.333,3.70719,-17.4398,27.7556,28.7349
1980-05-01 05:38:15,1,5.4033,1.8956,7.01319,0.707972,1,1,47755.6,48348.5,1694,0.60012442,-6.683897,69.729004,282.56885,38.0737,281.91,5.25487,-16.6079,28.0783,28.252
1980-05-01 05:38:55,1,5.77473,1.33407,7.05385,0.625488,1,1,50544.1,45579.4,1694,0.60012442,-6.683897,69.721191,282.56885,36.3992,281.704,4.78976,-15.719,28.8864,27.431
1980-05-01 05:39:36,1,5.5022,1.36703,7.03846,0.515859,1,1,49933.2,48819.2,1694,0.60011619,-6.683959,69.718018,282.56958,38.1804,282.381,5.65591,-15.1119,28.7113,28.3892
1980-05-01 05:40:16,1,5.56667,1.66092,7.07356,0.454981,1,1,51339.2,48146.3,1694,0.60010791,-6.6840219,69.710693,282.57007,38.6159,282.841,3.75934,-16.9521,29.1127,28.1929
1980-05-01 05:40:57,1,4.90769,1.03626,7.22418,0.660684,1,1,48142.9,47554.8,1694,0.60010791,-6.6840219,69.702881,282.57007,37.9345,282.327,5.70307,-16.4445,28.1919,28.0191
1980-05-01 05:41:37,1,3.9878,0.554878,6.65,0.672417,1,1,47203.7,48631.1,1694,0.60009962,-6.6840849,69.699707,282.5708,38.5967,281.825,5.85687,-16.5535,27.9155,28.3345
1980-05-01 05:42:18,1,3.90549,0.808791,6.27253,0.77091,1,1,46366.9,50392.2,1694,0.60009134,-6.6841478,69.692383,282.57129,40.1936,281.596,6.14009,-18.7953,27.667,28.8429
1980-05-01 05:42:58,1,4.60769,1.03626,7.0,1.01437,1,1,50091.6,53086.5,1694,0.60009134,-6.6841478,69.688477,282.57129,40.8453,280.57,4.83938,-19.6316,28.7568,29.604
1980-05-01 05:43:39,1,4.78352,0.930769,7.52418,0.689529,1,1,49409.6,50503.4,1694,0.60008311,-6.6842098,69.681396,282.57202,40.6386,283.807,7.55811,-16.8413,28.5604,28.8747
1980-05-01 05:44:20,1,5.19765,0.56,8.30824,0.382988,1,1,39862.6,50681.2,1694,0.60007483,-6.6842728,69.674072,282.57251,38.7951,284.588,6.09269,-14.1337,25.6532,28.9255
1980-05-01 05:45:00,1,4.69231,0.5,7.08791,0.548137,1,1,37443.3,48912.2,1694,0.60006654,-6.6843357,69.670898,282.57324,38.6991,283.376,5.74203,-14.4508,24.8625,28.4162
1980-05-01 05:45:40,1,5.47692,0.66044,7.35604,0.683746,1,1,47116.4,52007.1,1694,0.60006654,-6.6843357,69.663086,282.57324,41.3916,283.354,3.04647,-17.4538,27.8897,29.3015
1980-05-01 05:46:21,1,4.73956,-0.462637,7.37582,1.57925,1,1,57059.5,47598.6,1694,0.60005826,-6.6843977,69.659912,282.57397,40.6126,284.49,3.92675,-12.9919,30.6918,28.0321
1980-05-01 05:47:01,1,4.0989,0.542857,7.03736,0.514041,1,1,54127.7,47693.8,1694,0.60005003,-6.6844606,69.652588,282.57446,38.9289,283.936,6.15555,-17.8643,29.8929,28.0601
1980-05-01 05:47:42,1,4.83297,0.0450549,7.33516,0.616565,1,1,52374.6,49967.3,1694,0.60004997,-6.6844606,69.644775,282.57446,41.5967,284.477,5.85813,-16.6942,29.4048,28.7211
1980-05-01 05:48:22,1,5.63626,-1.26923,7.46264,0.629121,1,1,53171.2,50664.2,1694,0.60004175,-6.6845236,69.641602,282.5752,39.9511,285.056,8.70451,-16.6565,29.6276,28.9207
1980-05-01 05:49:03,1,5.85824,-1.42637,7.90549,0.534371,1,1,47920.3,51496.7,1694,0.60003346,-6.6845865,69.634277,282.57568,39.3668,284.182,6.67278,-16.8396,28.1266,29.1573
1980-05-01 05:49:43,1,6.05385,-0.764835,7.62967,0.756245,1,1,43100.6,52516.7,1694,0.60003346,-6.6845865,69.630371,282.57568,38.059,286.307,6.98982,-15.4137,26.6747,29.4447
1980-05-01 05:50:24,1,6.30879,0.595604,7.5044,0.446838,1,1,38594.9,48203.7,1694,0.60002518,-6.6846485,69.623291,282.57642,35.9794,286.397,9.24342,-15.4179,25.242,28.2097
1980-05-01 05:51:04,1,6.32527,0.176923,8.22967,0.547354,1,1,42285.5,49855.5,1694,0.60001689,-6.6847115,69.619873,282.5769,37.863,286.279,6.47408,-16.7878,26.4213,28.6889
1980-05-01 05:51:45,1,6.63736,0.183516,8.23736,0.44686,1,1,35662.6,47599.1,1694,0.60001689,-6.6847115,69.612061,282.5769,35.4384,286.497,8.05067,-14.365,24.2641,28.0322
1980-05-01 05:52:25,1,7.08132,-0.47033,8.22747,0.464207,1,1,36028.6,50689.1,1694,0.60000867,-6.6847744,69.60498,282.57764,37.1927,287.604,8.37223,-14.6673,24.3883,28.9278
1980-05-01 05:53:06,1,6.49231,-0.795604,8.4044,0.548135,1,1,35700.7,48222.5,1694,0.60000038,-6.6848364,69.601807,282.57837,37.2171,288.744,8.96644,-14.4392,24.2771,28.2152
1980-05-01 05:53:46,1,5.49231,0.0824176,9.07912,1.38018,1,1,36230.5,49187.2,1694,0.60000038,-6.6848373,69.593994,282.57837,36.2079,286.099,6.62704,-17.4506,24.4566,28.496
1980-05-01 05:54:27,1,6.17253,-0.701099,9.45824,0.704558,1,1,42656.3,47752.5,1694,0.5999921,-6.6848993,69.590576,282.57886,38.5775,289.579,5.81501,-17.6949,26.5369,28.0773
1980-05-01 05:55:07,1,5.72198,-0.135165,9.84835,0.44315,1,1,36054.2,43868.3,1694,0.59998381,-6.6849623,69.583496,282.57959,36.3367,290.175,4.22362,-15.3027,24.397,26.9112
1980-05-01 05:55:48,1,5.39011,0.17033,9.40879,0.767642,1,1,37984.1,44449.1,1694,0.59998381,-6.6849623,69.575684,282.57959,37.6216,289.241,11.3343,-16.543,25.0414,27.0888
1980-05-01 05:56:28,1,4.68352,-0.067033,8.81758,0.573961,1,1,45103.1,50194.0,1694,0.59997559,-6.6850252,69.572266,282.58008,41.0475,287.624,9.6615,-18.039,27.2873,28.7862
1980-05-01 05:57:09,1,5.47473,-0.479121,9.41868,0.794628,1,1,60798.8,46704.2,1694,0.5999673,-6.6850872,69.565186,282.58081,42.3815,286.959,8.27224,-20.8391,31.6815,27.7674
1980-05-01 05:57:49,1,6.49451,-2.48681,9.58242,0.512302,1,1,40273.6,46721.3,1694,0.5999673,-6.6850872,69.561279,282.58081,39.4465,288.171,8.0481,-18.954,25.7851,27.7725
1980-05-01 05:58:30,1,6.18571,-1.94725,9.94505,0.690147,1,1,36716.9,48452.0,1694,0.59995902,-6.6851501,69.553955,282.5813,39.0535,290.006,9.62492,-15.1326,24.6202,28.2822
1980-05-01 05:59:10,1,5.86923,-0.310989,9.98901,0.579995,1,1,38880.7,49719.4,1694,0.59995073,-6.6852131,69.550781,282.58203,39.0098,290.897,8.77698,-14.8831,25.3352,28.6497
1980-05-01 05:59:51,1,5.74176,-2.23956,8.26813,0.630685,1,1,37695.6,46951.0,1694,0.59995073,-6.6852131,69.542969,282.58203,40.4791,290.063,9.37327,-15.0588,24.9461,27.8407
1980-05-01 06:00:31,1,3.19121,2.82857,7.66593,4.10342,1,1,48803.2,49404.2,1694,0.59994245,-6.685276,69.535889,282.58276,43.3337,289.226,6.69559,-18.637,28.3846,28.5588
1980-05-01 06:01:12,1,2.85824,2.83297,8.00549,0.522143,1,1,50705.5,48296.9,1694,0.59993422,-6.685338,69.532471,282.58325,42.5464,286.926,15.3334,-19.808,28.9325,28.2369
1980-05-01 06:01:52,1,4.23956,-0.356044,7.9033,0.609727,1,1,52472.8,56689.2,1694,0.59993422,-6.685338,69.524658,282.58325,47.6299,288.826,9.45943,-18.212,29.4324,30.592
1980-05-01 06:02:33,1,3.99451,0.398901,8.00989,0.848646,1,1,46885.0,54565.6,1694,0.59992594,-6.685401,69.521484,282.58398,44.4371,291.481,5.95577,-19.0136,27.8211,30.0135
1980-05-01 06:03:13,1,2.89158,0.417895,8.96421,1.10173,1,1,48731.5,56076.2,1694,0.59991765,-6.685463,69.51416,282.58447,45.3988,290.11,4.79608,-19.4056,28.3637,30.4262
1980-05-01 06:03:54,1,3.14615,-2.05275,7.19011,3.582,1,1,42468.0,56563.2,1694,0.59991765,-6.6854639,69.506348,282.58447,45.304,293.402,0.527336,-21.3767,26.4782,30.558
1980-05-01 06:04:04,-1,nan,nan,nan,nan,1,4,nan,nan,1694,0.59990937,-6.6855259,69.50708,282.58521,nan,nan,nan,nan,nan,nan
1980-05-01 06:04:44,1,3.21313,-2.00505,8.55253,0.685987,1,1,41083.0,56831.2,1694,0.59990937,-6.6855259,69.499268,282.58521,43.1681,296.369,0.6903,-18.2913,26.0429,30.6303
1980-05-01 06:05:25,1,3.67727,-2.05114,7.81364,1.35813,1,1,40206.5,55616.0,1694,0.59990108,-6.6855888,69.496094,282.58594,41.679,297.085,3.96034,-18.6218,25.7636,30.301
1980-05-01 06:06:05,1,3.33579,-3.31368,8.22316,0.606973,1,1,38463.1,50735.3,1694,0.5998928,-6.6856508,69.48877,282.58643,40.927,297.844,9.09604,-16.3874,25.1988,28.941
1980-05-01 06:06:46,1,3.73217,-3.19391,7.5913,0.822552,1,1,38830.7,55992.3,1694,0.5998928,-6.6856508,69.484863,282.58643,41.8463,297.375,11.7745,-16.5942,25.3189,30.4034
1980-05-01 06:07:26,1,4.42174,-3.60326,7.32174,0.505213,1,1,35821.1,53616.0,1694,0.59988451,-6.6857138,69.477783,282.58716,41.9717,295.477,12.356,-16.4509,24.318,29.7512
1980-05-01 06:08:07,1,5.17386,-4.25341,5.84886,0.662886,1,1,34714.8,54315.0,1694,0.59987628,-6.6857767,69.470459,282.58765,42.2902,293.199,15.5648,-15.5349,23.9395,29.9445
1980-05-01 06:08:47,1,5.86374,-4.68681,6.27802,1.25431,1,1,41990.8,54109.0,1694,0.59987628,-6.6857767,69.466553,282.58765,43.3214,294.314,18.772,-17.4064,26.3291,29.8877
1980-05-01 06:09:28,1,4.73497,0.293007,6.85105,0.96453,1,1,39772.7,54749.1,1694,0.599868,-6.6858387,69.459473,282.58838,45.8403,295.547,13.4215,-17.1666,25.6242,30.064
1980-05-01 06:10:08,1,3.4,-4.67033,8.3011,1.44336,1,1,43157.1,46762.0,1694,0.59985971,-6.6859016,69.456299,282.58911,38.1378,294.625,15.4486,-14.9969,26.6922,27.7846
1980-05-01 06:10:49,1,2.87626,-5.24964,8.59568,0.85468,1,1,42574.0,50774.7,1694,0.59985971,-6.6859016,69.448486,282.58911,40.5143,294.395,17.2877,-14.7513,26.5113,28.9522
1980-05-01 06:11:29,1,2.41761,-5.25915,8.35563,0.813009,1,1,52458.3,47022.7,1694,0.59985143,-6.6859646,69.445068,282.5896,41.4832,295.106,19.791,-14.4176,29.4283,27.862
1980-05-01 06:12:10,1,2.64,-4.98526,8.33789,0.552611,1,1,49015.4,49522.5,1694,0.59984314,-6.6860266,69.437988,282.59033,41.4614,295.947,19.9406,-17.353,28.4462,28.5929
1980-05-01 06:12:50,1,3.4069,-4.21379,8.65402,0.807831,1,1,50454.3,49786.4,1694,0.59984314,-6.6860266,69.430176,282.59033,41.4896,293.536,18.0696,-15.7586,28.8607,28.669
1980-05-01 06:13:31,1,4.2063,-3.6189,8.84252,0.646493,1,1,53689.1,53388.5,1694,0.59983486,-6.6860895,69.426758,282.59082,44.2683,294.175,18.3142,-15.3384,29.7715,29.688
1980-05-01 06:14:11,1,3.02162,-3.04234,9.59099,1.08466,1,1,53043.3,59101.1,1694,0.59982657,-6.6861525,69.419678,282.59155,48.9598,296.43,14.204,-15.9151,29.5919,31.236
1980-05-01 06:14:52,1,2.93543,-1.23465,10.3165,0.845802,1,1,49666.0,55727.5,1694,0.59982657,-6.6861525,69.415771,282.59155,44.3066,298.396,16.0228,-16.9624,28.6344,30.3314
1980-05-01 06:20:18,1,3.17368,-2.43421,19.5982,5.09823,1,1,94024.6,146732.0,1694,0.59977692,-6.6865282,69.368896,282.59546,107.281,371.659,34.4568,-23.666,39.3984,49.2176
1980-05-01 06:20:59,1,3.52362,2.39764,20.3323,4.92889,1,1,118401.0,164899.0,1694,0.59977692,-6.6865282,69.361084,282.59546,104.016,374.039,33.7887,-12.9107,44.2115,52.1756
1980-05-01 06:21:40,-1,nan,nan,nan,nan,1,-3,nan,nan,1694,0.59976864,-6.6865902,69.357666,282.59595,nan,376.716,23.0364,-3.24232,nan,nan
1980-05-01 06:22:20,1,10.8685,-12.5685,36.2583,2.51026,1,1,38668.7,113149.0,1694,0.59976035,-6.6866531,69.350586,282.59668,59.1729,383.59,15.148,-22.3168,25.2661,43.2199
1980-05-01 06:23:01,1,11.7748,-18.7898,32.715,2.40016,1,1,35004.4,129461.0,1694,0.59975213,-6.6867151,69.343262,282.59717,63.2193,381.492,26.3928,-16.6082,24.0391,46.2303
1980-05-01 06:23:41,1,11.1123,-14.7323,35.0908,6.00731,1,1,40157.2,123526.0,1694,0.59975213,-6.6867151,69.339355,282.59717,62.9658,386.579,22.8583,-13.9568,25.7478,45.1583
1980-05-01 06:24:22,1,8.51176,-8.49832,39.8571,2.33471,1,1,29273.9,105301.0,1694,0.59974384,-6.6867781,69.332275,282.5979,61.7513,385.256,25.3537,-14.1973,21.9836,41.6941
1980-05-01 06:25:02,1,7.98898,-6.40709,40.6756,3.29789,1,1,31985.0,100727.0,1694,0.59973556,-6.686841,69.329102,282.59863,64.2538,384.753,31.6055,-8.99425,22.979,40.7784
1980-05-01 06:25:43,1,4.58898,0.816535,42.2465,3.64013,1,1,32914.1,106089.0,1694,0.59973556,-6.686841,69.321289,282.59863,56.2088,381.551,36.6593,-5.05597,23.3104,41.8498
1980-05-01 06:26:23,1,0.151111,9.43778,38.7763,2.89858,1,1,48348.0,124062.0,1694,0.59972727,-6.686903,69.317871,282.59912,64.7117,388.359,28.7126,1.2161,28.2519,45.256
1980-05-01 06:27:04,1,-3.08814,13.3771,36.1559,2.79082,1,1,45093.9,116461.0,1694,0.59971899,-6.6869659,69.310791,282.59985,63.1361,387.105,30.5191,8.21395,27.2846,43.8478
1980-05-01 06:27:44,1,-3.4036,14.2626,31.6698,8.13785,1,1,63430.8,118052.0,1694,0.59971899,-6.6869659,69.302979,282.59985,70.5365,392.292,31.0819,7.37042,32.36,44.1463
1980-05-01 06:28:25,1,5.56829,2.14715,35.9374,2.48334,1,1,42853.7,107011.0,1694,0.5997107,-6.6870289,69.299561,282.60034,64.7198,387.339,36.4035,-0.301683,26.5982,42.0312
1980-05-01 06:29:05,1,1.97881,4.99338,35.1424,2.82481,1,1,45893.1,115314.0,1694,0.59970242,-6.6870909,69.29248,282.60107,70.7373,388.333,39.246,-1.0906,27.5253,43.6313
1980-05-01 06:29:46,1,-6.17559,17.3307,29.3677,10.6167,1,1,54201.6,102832.0,1694,0.59970242,-6.6870909,69.288574,282.60107,49.266,388.921,40.9357,10.18,29.9133,41.2024
1980-05-01 06:30:26,1,-1.94077,9.55154,35.0346,3.15891,1,1,41570.6,112106.0,1694,0.59969419,-6.6871538,69.281494,282.60181,49.9162,387.397,41.1943,0.627612,26.197,43.0202
1980-05-01 06:31:07,1,-3.36911,10.9244,33.7911,2.14087,1,1,41327.3,126656.0,1694,0.59968591,-6.6872168,69.27417,282.60229,47.0602,387.253,41.3471,4.17,26.1202,45.7268
1980-05-01 06:31:47,1,-5.1937,13.4181,34.4228,2.00316,1,1,42669.1,108454.0,1694,0.59968591,-6.6872168,69.270264,282.60229,50.3507,392.564,38.7038,7.98317,26.5408,42.3136
1980-05-01 06:33:08,1,-6.96331,14.2245,31.9432,1.94248,1,1,45034.7,123637.0,1694,0.59966934,-6.6873417,69.259766,282.60352,46.9654,387.968,39.4924,8.37777,27.2666,45.1786
1980-05-01 06:33:49,1,-6.7254,12.8817,33.3111,1.73075,1,1,47564.5,106176.0,1694,0.59966934,-6.6873417,69.251953,282.60352,43.3395,389.198,38.5537,12.9496,28.022,41.867
1980-05-01 06:34:29,1,-8.00305,13.845,31.9015,1.78082,1,1,50421.4,119692.0,1694,0.59966105,-6.6874046,69.248779,282.60425,47.2936,391.286,44.709,12.4456,28.8513,44.4519
1980-05-01 06:35:10,1,-8.76457,13.8268,31.8315,3.18584,1,1,51832.7,130895.0,1694,0.59965277,-6.6874666,69.241699,282.60498,46.3928,388.64,44.6337,12.8469,29.2523,46.4857
1980-05-01 06:35:50,1,-0.640458,9.83282,37.6786,2.17274,1,1,44231.3,98725.4,1694,0.59965277,-6.6874666,69.233887,282.60498,52.0466,398.343,37.9009,-0.407261,27.0223,40.3713
1980-05-01 06:36:31,1,-0.685496,9.68168,37.6038,1.95859,1,1,42937.5,96358.7,1694,0.59964448,-6.6875296,69.230469,282.60547,50.9603,398.107,34.074,0.0656317,26.6242,39.8844
1980-05-01 06:37:11,1,-0.514074,10.083,37.7874,2.06588,1,1,44960.5,100458.0,1694,0.5996362,-6.6875925,69.223389,282.6062,55.4807,402.199,32.8196,0.633669,27.2442,40.724
1980-05-01 06:37:52,1,-0.72381,11.281,37.3127,2.02516,1,1,42134.2,88892.7,1694,0.5996362,-6.6875925,69.219482,282.6062,49.3864,400.413,30.8145,-0.319236,26.374,38.3081
1980-05-01 06:38:32,1,-0.941007,10.8115,37.554,2.15504,1,1,43497.5,95657.2,1694,0.59962797,-6.6876545,69.212158,282.60669,51.4404,400.077,29.44,2.86335,26.7972,39.739
1980-05-01 06:39:13,1,0.279528,10.0976,37.115,3.0145,1,1,43068.5,84341.3,1694,0.59961969,-6.6877174,69.205078,282.60742,41.1465,398.234,28.5806,1.26483,26.6648,37.3145
1980-05-01 06:39:53,1,-5.50798,18.3276,33.2313,4.44566,1,1,60386.8,110962.0,1694,0.59961969,-6.6877174,69.201172,282.60742,47.5638,387.755,46.7848,-1.04766,31.574,42.8002
1980-05-01 06:40:34,1,-9.11037,23.223,31.9007,2.51283,1,1,51631.2,124062.0,1694,0.5996114,-6.6877804,69.194092,282.60815,37.6429,389.237,43.5624,-9.93313,29.1954,45.2561
1980-05-01 06:41:14,1,-8.78769,22.1492,32.0115,2.72125,1,1,56660.0,121931.0,1694,0.59960312,-6.6878424,69.190674,282.60864,44.3444,388.96,50.3524,-7.87764,30.5841,44.8658
1980-05-01 06:41:55,1,-8.84228,20.852,30.765,2.12064,1,1,53633.4,116060.0,1694,0.59960312,-6.6878424,69.182861,282.60864,40.8169,387.451,42.1669,-2.40043,29.7561,43.7722